Back to catalog

QIANFAN-1

AliveCommunicationsPO
NORAD 60379·PAYLOAD·🇨🇳 China

Launched Aug 6, 2024 from Taiyuan Satellite Launch Center

Loading…

Next Passes (next 24 hours)

TLE

FreshSource: Space-Track

Epoch: Sep 14, 2026, 13:51 UTC

1 60379U 24140A   26257.57711941  .00000012  00000-0 -23636-6 0  9993
2 60379  88.9664 270.6436 0019079 133.5562 226.7177 13.51025812104596

Track QIANFAN-1 in real time with AllMySat

Download on the App Store